Retour au catalogue

BLACK ARROW R/B

ActifPO
NORAD 5581·ROCKET BODY·🇬🇧 United Kingdom

Lancé Oct 28, 1971 depuis Woomera Range Complex

Loading…

Prochains Passages (prochaines 24 heures)

TLE

FraisSource: Space-Track

Époque: Sep 14, 2026, 09:46 UTC

1 05581U 71093B   26257.40701456  .00000817  00000-0  17000-3 0  9995
2 05581  82.0344 247.4464 0505724  88.7779 277.1255 14.00684197759091

Suivez BLACK ARROW R/B en temps réel avec AllMySat

Download on the App Store